This is the latest recevied weather packets stored in our database for station/object DL9CN-10. If no packets are shown the sender has not sent any weather packets the latest 10 day(s).
| Time | Temp. | Humidity | Pressure | Rain* | Wind** | Luminosity | Snow |
|---|---|---|---|---|---|---|---|
| 1777153948 | 20.56° C | 35% | 1021.1 hPa | - | - | - | - |
| 1777153048 | 20.56° C | 35% | 1020.9 hPa | - | - | - | - |
| 1777152148 | 21.11° C | 34% | 1020.8 hPa | - | - | - | - |
| 1777151248 | 21.67° C | 35% | 1020.6 hPa | - | - | - | - |
| 1777150348 | 21.67° C | 35% | 1020.4 hPa | - | - | - | - |
| 1777149448 | 22.22° C | 34% | 1020.3 hPa | - | - | - | - |
| 1777148547 | 22.78° C | 35% | 1020.1 hPa | - | - | - | - |
| 1777147647 | 22.78° C | 35% | 1020 hPa | - | - | - | - |
| 1777146747 | 23.33° C | 35% | 1019.8 hPa | - | - | - | - |
| 1777145847 | 23.89° C | 35% | 1019.6 hPa | - | - | - | - |
| 1777144947 | 23.89° C | 35% | 1019.4 hPa | - | - | - | - |
| 1777144047 | 24.44° C | 35% | 1019.2 hPa | - | - | - | - |
| 1777143147 | 24.44° C | 36% | 1018.9 hPa | - | - | - | - |
| 1777142246 | 24.44° C | 36% | 1018.7 hPa | - | - | - | - |
| 1777141346 | 25° C | 36% | 1018.5 hPa | - | - | - | - |
| 1777140446 | 25° C | 36% | 1018.3 hPa | - | - | - | - |
| 1777139546 | 25° C | 37% | 1018.3 hPa | - | - | - | - |
| 1777138646 | 25° C | 38% | 1018.1 hPa | - | - | - | - |
| 1777137746 | 25° C | 38% | 1018 hPa | - | - | - | - |
| 1777136846 | 25° C | 39% | 1018.1 hPa | - | - | - | - |
| 1777135946 | 25° C | 39% | 1018 hPa | - | - | - | - |
| 1777135045 | 24.44° C | 40% | 1018 hPa | - | - | - | - |
| 1777134148 | 24.44° C | 40% | 1018 hPa | - | - | - | - |
| 1777133248 | 24.44° C | 41% | 1018 hPa | - | - | - | - |
| 1777132348 | 24.44° C | 42% | 1018 hPa | - | - | - | - |
* Rain since midnight (hover to see other rain measurements)
** Current wind speed in m/s (hover to see current wind gust speed)